Weather in Zolotari

Russia / Volgograd Oblast     49°45′43″N   46°27′01″E
temp.,
°C
wind,
m/s
gust,
m/s
humid.,
%
clouds,
%
prec.,
mm/h
press.,
hPa
HPBL,
m
13 august, sat
sat1300:00+26ene613343 0.0 1019342
03:00+24ene511392 0.0 1020244
06:00+24ene510345 0.0 1020286
09:00+30ene672333 0.0 1019940
12:00+33ene65196 0.0 10181776
15:00+34ne651783 0.0 10172311
18:00+32ne7619100 0.0 10161825
21:00+27ne51129100 0.0 1016228
14 august, sun
sun1400:00+25ene4103470 0.0 1016197
03:00+23ne4840100 0.0 1016158
06:00+23ene4938100 0.0 1016232
09:00+30e5621100 0.0 1016879
12:00+34ene551692 0.0 10152273
15:00+34ene6515100 0.0 10142571
18:00+33ene5617100 0.0 1013880
21:00+28ne7133299 0.0 1014380
15 august, mon
mon1500:00+26ene714385 0.0 1013391
03:00+25e6124135 0.0 1015341
06:00+24ene612395 0.0 1016449
09:00+29ene89260 0.0 1016942
12:00+32ne88210 0.0 10161598
15:00+32ne87170 0.0 10151816
18:00+30ne77170 0.0 10151584
21:00+25nne510290 0.0 1016200
16 august, tue
tue1600:00+23nne511400 0.0 1016214
03:00+22ene512420 0.0 1016272
06:00+23ene612380 0.0 1017360
09:00+30e810220 0.0 10171003
12:00+34e88180 0.0 10162048
15:00+35ene781592 0.0 10152312
18:00+33ene671699 0.0 10161072
21:00+27ene6122188 0.0 1016281
17 august, wed
wed1700:00+26ene71522100 0.0 1017431
03:00+24ene6142692 0.0 1017341
06:00+24ene6132914 0.0 1017385
09:00+29ene8922100 0.0 1016722
12:00+34ene8817100 0.0 10151382
15:00+36ene7715100 0.0 10142057
18:00+35ene68167 0.0 1012635
21:00+30ne71421100 0.0 1012339